East Quogue, NY

2:42 PM EST on February 23, 2017 (GMT -0500)
The Gabreski

Weather History for KFOK - September, 2013

Change the Weather History Date:

Sunday, September 22, 2013

  Actual Average Record
Temperature  
Mean Temperature 63 °F -  
Max Temperature 72 °F 69 °F 81 °F (2004)
Min Temperature 55 °F 49 °F 37 °F (1997)
Degree Days  
Heating Degree Days 2    
Growing Degree Days 13 (Base 50)    
Moisture  
Dew Point 58 °F    
Average Humidity 78    
Maximum Humidity 100    
Minimum Humidity 45    
Precipitation  
Precipitation 0.55 in - - ()
Sea Level Pressure  
Sea Level Pressure 29.73 in    
Wind  
Wind Speed 10 mph (WNW)    
Max Wind Speed 16 mph    
Max Gust Speed 23 mph    
Visibility 8 miles    
Events Rain    
Averages and records for this station are not official NWS values.
T = Trace of Precipitation, MM = Missing Value Source: NWS Daily Summary

Daily Weather History Graph

Daily Weather History Graph

Search for Another Location

Airport or City:

Trip Planner

Search our weather history database for the weather conditions in past years. The results will help you decide how hot, cold, wet, or windy it might be!

Date:

Astronomy

Sep. 22, 2013 Rise Set
Actual Time 6:38 AM EDT 6:47 PM EDT
Civil Twilight 6:10 AM EDT 7:14 PM EDT
Nautical Twilight 5:38 AM EDT 7:46 PM EDT
Astronomical Twilight 5:06 AM EDT 8:19 PM EDT
Moon 8:33 PM EDT (9/22) 9:57 AM EDT (9/22)
Length of Visible Light 13h 03m
Length of Day
12h 09m
Waning Gibbous, 89% of the Moon is Illuminated
Sep 22
Waning Gibbous
Sep 26
Last Quarter
Oct 4
New
Oct 11
First Quarter
Oct 18
Full

Hourly Weather History & Observations

Time (EDT) Temp. Dew Point Humidity Pressure Visibility Wind Dir Wind Speed Gust Speed Precip Events Conditions
12:53 AM 70.0 °F 66.0 °F 87% 29.71 in 10.0 mi South 11.5 mph 23.0 mph N/A   Mostly Cloudy
1:53 AM 70.0 °F 66.0 °F 87% 29.69 in 10.0 mi South 12.7 mph 20.7 mph N/A   Overcast
2:41 AM 69.8 °F 66.2 °F 88% 29.69 in 7.0 mi SSW 11.5 mph 23.0 mph 0.01 in Rain Light Rain
2:43 AM 69.8 °F 66.2 °F 88% 29.69 in 7.0 mi SW 10.4 mph 23.0 mph 0.01 in Rain Light Rain
2:53 AM 68.0 °F 64.9 °F 90% 29.69 in 5.0 mi SSW 5.8 mph 21.9 mph 0.02 in Rain Light Rain
3:39 AM 68.0 °F 66.2 °F 94% 29.68 in 5.0 mi SSW 10.4 mph 18.4 mph 0.10 in Rain Light Rain
3:53 AM 68.0 °F 66.0 °F 93% 29.68 in 4.0 mi SSW 8.1 mph 16.1 mph 0.13 in Rain Light Rain
4:00 AM 68.0 °F 66.2 °F 94% 29.68 in 4.0 mi SSW 11.5 mph - 0.01 in Rain Light Rain
4:14 AM 66.2 °F 66.2 °F 100% 29.69 in 2.0 mi SSW 11.5 mph 19.6 mph 0.09 in Rain Heavy Rain
4:27 AM 66.2 °F 64.4 °F 94% 29.69 in 2.0 mi WSW 16.1 mph 20.7 mph 0.18 in Rain Heavy Rain
4:40 AM 66.2 °F 64.4 °F 94% 29.68 in 4.0 mi SW 6.9 mph - 0.22 in Rain Rain
4:53 AM 64.9 °F 64.0 °F 97% 29.68 in 6.0 mi SW 3.5 mph - 0.24 in Rain Light Rain
5:16 AM 64.4 °F 62.6 °F 94% 29.68 in 6.0 mi NNW 8.1 mph - 0.03 in Rain Light Rain
5:24 AM 62.6 °F 62.6 °F 100% 29.69 in 7.0 mi NW 4.6 mph - 0.04 in Rain Light Rain
5:48 AM 62.6 °F 62.6 °F 100% 29.69 in 6.0 mi NW 4.6 mph - 0.07 in Rain Light Rain
5:53 AM 63.0 °F 62.1 °F 97% 29.70 in 6.0 mi NW 4.6 mph - 0.08 in Rain Light Rain
6:31 AM 62.6 °F 60.8 °F 94% 29.70 in 10.0 mi NW 4.6 mph - 0.03 in Rain Light Rain
6:53 AM 63.0 °F 61.0 °F 93% 29.70 in 10.0 mi West 5.8 mph - 0.04 in Rain Light Rain
7:05 AM 62.6 °F 62.6 °F 100% 29.71 in 2.5 mi Calm Calm - 0.04 in Rain Light Rain
7:12 AM 62.6 °F 60.8 °F 94% 29.71 in 8.0 mi WNW 4.6 mph - 0.04 in Rain Light Rain
7:53 AM 63.0 °F 61.0 °F 93% 29.71 in 10.0 mi Calm Calm - 0.04 in   Overcast
8:53 AM 64.0 °F 62.1 °F 93% 29.72 in 10.0 mi WNW 5.8 mph - N/A   Overcast
9:53 AM 66.0 °F 60.1 °F 81% 29.74 in 10.0 mi WNW 11.5 mph - 0.00 in   Overcast
10:28 AM 69.8 °F 60.8 °F 73% 29.73 in 10.0 mi WNW 11.5 mph - N/A   Scattered Clouds
10:53 AM 69.1 °F 59.0 °F 70% 29.73 in 10.0 mi NW 11.5 mph - N/A   Scattered Clouds
11:11 AM 68.0 °F 57.2 °F 68% 29.73 in 10.0 mi WNW 13.8 mph - N/A   Mostly Cloudy
11:31 AM 69.8 °F 59.0 °F 68% 29.73 in 10.0 mi NW 11.5 mph - N/A   Scattered Clouds
11:38 AM 69.8 °F 59.0 °F 68% 29.73 in 10.0 mi NW 11.5 mph 18.4 mph N/A   Mostly Cloudy
11:53 AM 68.0 °F 57.9 °F 70% 29.73 in 10.0 mi WNW 10.4 mph - N/A   Mostly Cloudy
12:53 PM 71.1 °F 59.0 °F 66% 29.73 in 10.0 mi NNW 10.4 mph - N/A   Mostly Cloudy
1:04 PM 71.6 °F 57.2 °F 60% 29.73 in 10.0 mi WNW 13.8 mph - N/A   Mostly Cloudy
1:14 PM 69.8 °F 57.2 °F 64% 29.73 in 10.0 mi WNW 11.5 mph - N/A   Partly Cloudy
1:53 PM 70.0 °F 55.0 °F 59% 29.73 in 10.0 mi WNW 13.8 mph - N/A   Scattered Clouds
2:53 PM 71.1 °F 48.9 °F 45% 29.73 in 10.0 mi WNW 12.7 mph - N/A   Clear
3:53 PM 70.0 °F 48.9 °F 47% 29.74 in 10.0 mi NW 13.8 mph 21.9 mph N/A   Partly Cloudy
4:53 PM 68.0 °F 46.9 °F 47% 29.75 in 10.0 mi WNW 11.5 mph - N/A   Clear
5:53 PM 64.9 °F 48.0 °F 54% 29.77 in 10.0 mi NW 10.4 mph - N/A   Partly Cloudy
6:53 PM 61.0 °F 46.9 °F 60% 29.79 in 10.0 mi NW 6.9 mph - N/A   Mostly Cloudy
7:53 PM 59.0 °F 46.0 °F 62% 29.82 in 10.0 mi NNW 5.8 mph - N/A   Clear
8:53 PM 55.9 °F 45.0 °F 67% 29.85 in 10.0 mi NNW 6.9 mph - N/A   Clear
9:53 PM 57.0 °F 42.1 °F 57% 29.87 in 10.0 mi North 9.2 mph - N/A   Scattered Clouds
10:53 PM 55.9 °F 39.9 °F 55% 29.90 in 10.0 mi North 11.5 mph 19.6 mph N/A   Clear
11:53 PM 55.9 °F 39.9 °F 55% 29.89 in 10.0 mi NNW 10.4 mph 21.9 mph N/A   Clear